TimePST,TemperatureF,Dew PointF,Humidity,Sea Level PressureIn,VisibilityMPH,Wind Direction,Wind SpeedMPH,Gust SpeedMPH,PrecipitationIn,Events,Conditions,WindDirDegrees,DateUTC
12:00 AM,26.6,24.8,93,30.39,3.0,SSE,3.5,-,N/A,,Overcast,150,2013-01-18 08:00:00
12:24 AM,26.6,24.8,93,30.39,2.5,Calm,Calm,-,N/A,,Overcast,0,2013-01-18 08:24:00
12:40 AM,26.6,24.8,93,30.38,3.0,SE,3.5,-,N/A,,Overcast,130,2013-01-18 08:40:00
12:47 AM,26.6,24.8,93,30.38,2.0,SE,3.5,-,N/A,,Overcast,140,2013-01-18 08:47:00
12:52 AM,27.0,24.1,89,30.43,2.0,SSE,3.5,-,N/A,,Overcast,150,2013-01-18 08:52:00
1:18 AM,26.6,24.8,93,30.37,3.0,SSE,3.5,-,N/A,,Overcast,160,2013-01-18 09:18:00
1:52 AM,27.0,24.1,89,30.42,4.0,SSE,4.6,-,N/A,,Overcast,160,2013-01-18 09:52:00
2:07 AM,26.6,24.8,93,30.37,2.5,SSE,5.8,-,N/A,,Overcast,160,2013-01-18 10:07:00
2:15 AM,26.6,24.8,93,30.37,4.0,SSE,4.6,-,N/A,,Overcast,160,2013-01-18 10:15:00
2:42 AM,26.6,24.8,93,30.37,4.0,SSE,5.8,-,N/A,,Overcast,160,2013-01-18 10:42:00
2:52 AM,27.0,24.1,89,30.41,4.0,SSE,6.9,-,N/A,,Overcast,160,2013-01-18 10:52:00
3:52 AM,27.0,24.1,89,30.39,5.0,South,4.6,-,N/A,,Overcast,170,2013-01-18 11:52:00
4:52 AM,26.1,24.1,92,30.39,4.0,SSE,3.5,-,N/A,,Overcast,160,2013-01-18 12:52:00
5:05 AM,26.6,24.8,93,30.34,2.5,Calm,Calm,-,N/A,,Overcast,0,2013-01-18 13:05:00
5:25 AM,26.6,24.8,93,30.33,3.0,SSE,5.8,-,N/A,,Overcast,150,2013-01-18 13:25:00
5:48 AM,26.6,24.8,93,30.33,4.0,SSE,4.6,-,N/A,,Overcast,150,2013-01-18 13:48:00
5:52 AM,26.1,23.0,88,30.38,4.0,SSE,4.6,-,N/A,,Overcast,150,2013-01-18 13:52:00
6:07 AM,26.6,24.8,93,30.33,3.0,Calm,Calm,-,N/A,,Overcast,0,2013-01-18 14:07:00
6:52 AM,27.0,24.1,89,30.38,4.0,Calm,Calm,-,0.00,,Overcast,0,2013-01-18 14:52:00
7:52 AM,27.0,23.0,85,30.39,4.0,Calm,Calm,-,N/A,,Overcast,0,2013-01-18 15:52:00
8:52 AM,27.0,23.0,85,30.39,3.0,Calm,Calm,-,N/A,,Overcast,0,2013-01-18 16:52:00
9:52 AM,27.0,23.0,85,30.39,3.0,Calm,Calm,-,N/A,,Overcast,0,2013-01-18 17:52:00
10:52 AM,28.0,23.0,81,30.38,4.0,SW,4.6,-,N/A,,Haze,220,2013-01-18 18:52:00
11:52 AM,28.0,23.0,81,30.37,3.0,Calm,Calm,-,N/A,,Haze,0,2013-01-18 19:52:00
12:52 PM,28.9,23.0,78,30.36,4.0,NNE,5.8,-,N/A,,Haze,30,2013-01-18 20:52:00
1:52 PM,28.0,23.0,81,30.34,3.0,Calm,Calm,-,N/A,,Haze,0,2013-01-18 21:52:00
2:52 PM,28.0,23.0,81,30.34,4.0,Calm,Calm,-,N/A,,Haze,0,2013-01-18 22:52:00
3:52 PM,28.0,21.9,78,30.35,4.0,Calm,Calm,-,N/A,,Haze,0,2013-01-18 23:52:00
4:52 PM,28.0,23.0,81,30.35,6.0,Calm,Calm,-,N/A,,Haze,0,2013-01-19 00:52:00
5:52 PM,28.0,23.0,81,30.36,6.0,Calm,Calm,-,N/A,,Haze,0,2013-01-19 01:52:00
6:52 PM,28.0,23.0,81,30.37,6.0,ENE,3.5,-,N/A,,Haze,60,2013-01-19 02:52:00
7:52 PM,28.0,21.9,78,30.38,7.0,North,3.5,-,N/A,,Overcast,10,2013-01-19 03:52:00
8:52 PM,28.0,21.9,78,30.38,7.0,NNE,4.6,-,N/A,,Overcast,20,2013-01-19 04:52:00
9:52 PM,28.0,23.0,81,30.40,7.0,ENE,3.5,-,N/A,,Overcast,60,2013-01-19 05:52:00
10:52 PM,28.0,21.9,78,30.40,7.0,Calm,Calm,-,N/A,,Overcast,0,2013-01-19 06:52:00
11:47 PM,28.4,21.2,74,30.36,8.0,Calm,Calm,-,N/A,,Overcast,0,2013-01-19 07:47:00
11:52 PM,28.0,21.0,75,30.41,8.0,NNE,4.6,-,N/A,,Overcast,30,2013-01-19 07:52:00